This is the latest recevied weather packets stored in our database for station/object IA5ITY-13. If no packets are shown the sender has not sent any weather packets the latest 10 day(s).
| Time | Temp. | Humidity | Pressure | Rain* | Wind** | Luminosity | Snow |
|---|---|---|---|---|---|---|---|
| 1777884613 | 18.89° C | 72% | 1017.4 hPa | 0 mm | - | - | - |
| 1777884312 | 18.89° C | 69% | 1017.4 hPa | 0 mm | - | - | - |
| 1777884012 | 20° C | 66% | 1017.3 hPa | 0 mm | - | - | - |
| 1777883709 | 21.11° C | 70% | 1017.3 hPa | 0 mm | - | - | - |
| 1777883423 | 20° C | 76% | 1017.3 hPa | 0 mm | - | - | - |
| 1777883109 | 20° C | 77% | 1017.4 hPa | 0 mm | - | - | - |
| 1777882514 | 18.89° C | 78% | 1017.4 hPa | 0 mm | - | - | - |
| 1777882213 | 17.78° C | 79% | 1017.4 hPa | 0 mm | - | - | - |
| 1777881909 | 17.78° C | 78% | 1017.4 hPa | 0 mm | - | - | - |
| 1777881631 | 17.78° C | 79% | 1017.4 hPa | 0 mm | - | - | - |
| 1777881310 | 17.78° C | 80% | 1017.3 hPa | 0 mm | - | - | - |
| 1777881013 | 17.78° C | 80% | 1017.2 hPa | 0 mm | - | - | - |
| 1777880412 | 17.78° C | 82% | 1017.3 hPa | 0 mm | - | - | - |
| 1777880109 | 17.78° C | 81% | 1017.2 hPa | 0 mm | - | - | - |
| 1777879823 | 17.78° C | 81% | 1017.3 hPa | 0 mm | - | - | - |
| 1777879509 | 17.78° C | 81% | 1017.1 hPa | 0 mm | - | - | - |
| 1777879213 | 17.78° C | 82% | 1017.2 hPa | 0 mm | - | - | - |
| 1777878912 | 17.78° C | 82% | 1017.2 hPa | 0 mm | - | - | - |
| 1777878613 | 17.78° C | 83% | 1017.1 hPa | 0 mm | - | - | - |
| 1777878310 | 17.22° C | 85% | 1017 hPa | 0 mm | - | - | - |
| 1777878032 | 17.22° C | 86% | 1017 hPa | 0 mm | - | - | - |
| 1777877709 | 17.22° C | 85% | 1016.9 hPa | 0 mm | - | - | - |
| 1777877413 | 17.22° C | 87% | 1017 hPa | 0 mm | - | - | - |
| 1777877112 | 17.22° C | 88% | 1016.9 hPa | 0 mm | - | - | - |
| 1777876813 | 17.22° C | 88% | 1016.9 hPa | 0 mm | - | - | - |
* Rain latest hour (hover to see other rain measurements)
** Current wind speed in m/s (hover to see current wind gust speed)